Location: Unspecified
(0.0000°N, 0.0000°E)
Time: 08:53:04

ISS - Visible Passes

Search period start: 27 October 2016 00:00
Search period end: 06 November 2016 00:00
Orbit: 400 x 408 km, 51.6° (Epoch: 27 October)

Date Brightness Start Highest point End Pass type
(mag) Time Alt. Az. Time Alt. Az. Time Alt. Az.
28 Oct -3.2 05:04:11 10° SSW 05:07:28 81° SE 05:10:44 10° NE visible
29 Oct -1.1 04:12:17 10° S 04:15:06 26° SE 04:17:55 10° ENE visible
30 Oct -2.1 04:57:25 16° W 04:58:58 23° NW 05:01:38 10° N visible
31 Oct -0.6 04:09:31 12° NNE 04:09:31 12° NNE 04:09:49 10° NNE visible
